Regional Weather Roundup
Issued by NWS

Home | Current Version | Previous Version | Graphics & Text | Print | Product List | Glossary On
Versions: 1 2 3 4 5 6 7 8 9 10 11 12 13 14 15 16 17 18 19 20 21 22 23 24 25 26 27 28 29 30 31 32 33 34 35 36 37 38 39 40 41 42 43 44 45 46 47 48 49 50
000
ASUS43 KLOT 171300
RWRIL

ILLINOIS REGIONAL WEATHER ROUNDUP
NATIONAL WEATHER SERVICE CHICAGO/ROMEOVILLE IL
800 AM CDT THU APR 17 2014

NOTE: "FAIR" INDICATES FEW OR NO CLOUDS BELOW 12,000 FEET WITH NO
SIGNIFICANT WEATHER AND/OR OBSTRUCTIONS TO VISIBILITY.

* THESE STATIONS ARE NOT UNDER NWS QUALITY CONTROL. THEY ALSO MAY NOT
  REPORT WEATHER SUCH AS PRECIPITATION OR FOG.

ILZ001-002-007-009-015-016-024-171400-
NORTHWEST ILLINOIS

CITY           SKY/WX    TMP DP  RH WIND       PRES   REMARKS
MOLINE         CLOUDY    41  33  73 W16       30.16R
STERLING*      CLOUDY    45  36  70 W10       30.13R
$$

ILZ003-004-008-010-011-017-018-171400-
NORTH CENTRAL ILLINOIS

CITY           SKY/WX    TMP DP  RH WIND       PRES   REMARKS
ROCKFORD       CLOUDY    44  31  60 S14       30.12R
$$

ILZ005-006-012>014-019>023-171400-
NORTHEAST ILLINOIS

CITY           SKY/WX    TMP DP  RH WIND       PRES   REMARKS
CHICAGO-OHARE  MOSUNNY   45  27  49 S16       30.14R
CHICAGO-MIDWAY PTSUNNY   44  27  51 S15       30.15R
AURORA         SUNNY     43  31  62 S14       30.14R
WAUKEGAN       PTSUNNY   45  27  49 S17G23    30.11S
DUPAGE AIRPORT SUNNY     45  30  55 S17G25    30.12R
WHEELING       MOSUNNY   45  28  51 S15       30.14R
NORTHERLY ISL    N/A     44  26  49 S9          N/A
$$

LMZ740>746-171400-
SOUTHERN LAKE MICHIGAN

STATION/POSITION SKY/WX   TEMP    WIND        PRES    VSBY  WAVE
                          AIR SEA DIR/SP/G                  HT/PER
                          (F)     (DEG/KT/KT) (MB)    (MI)  (FT/S)
WAUKEGAN HARBOR            45     190/ 15/ 20 1021.0S
HARRISON CRIB              42     170/ 22/ 24   N/A
BURNHAM HARBOR             44     200/ 13/ 15   N/A
CALUMET HARBOR             43     180/ 11/ 19 1022.0R
MICHIGAN CITY              41     130/ 16/ 21   N/A
$$

ILZ025>027-034>036-040-047-049-050-058-095>099-171400-
WEST-CENTRAL ILLINOIS

CITY           SKY/WX    TMP DP  RH WIND       PRES   REMARKS
QUINCY         PTSUNNY   44  36  73 NW12      30.19R
$$

ILZ028>032-037-038-041>044-048-051>054-059>061-171400-
CENTRAL ILLINOIS

CITY           SKY/WX    TMP DP  RH WIND       PRES   REMARKS
DECATUR        SUNNY     46  32  58 S12       30.20R
PEORIA         MOSUNNY   46  32  58 SW12      30.17R
SPRINGFIELD    SUNNY     47  31  53 SW12      30.19R
TAYLORVILLE    NOT AVBL
$$

ILZ033-039-045-046-055>057-062-063-171400-
EAST-CENTRAL ILLINOIS

CITY           SKY/WX    TMP DP  RH WIND       PRES   REMARKS
CHAMPAIGN      SUNNY     45  32  60 S15       30.20R
MATTOON        SUNNY     45  32  60 S10       30.22R
$$

ILZ079-100>102-171400-
SOUTHWEST ILLINOIS

CITY           SKY/WX    TMP DP  RH WIND       PRES   REMARKS
ALTON          PTSUNNY   45  36  70 S9        30.22R
BELLEVILLE     PTSUNNY   45  37  74 S8        30.23R
CAHOKIA*       PTSUNNY   46  34  62 S5        30.22R
$$

ILZ064>066-069>071-074>076-080>082-084>086-088>090-092>094-171400-
SOUTH-CENTRAL ILLINOIS

CITY           SKY/WX    TMP DP  RH WIND       PRES   REMARKS
CARBONDALE     SUNNY     44  37  76 S6        30.26R
MARION         MOSUNNY   48  34  57 SE5       30.28R
MT. VERNON     SUNNY     45  28  53 S3        30.27R
$$

ILZ067-068-072-073-078-083-087-091-171400-
SOUTHEAST ILLINOIS

CITY           SKY/WX    TMP DP  RH WIND       PRES   REMARKS
$$

ABBREVIATIONS USED IN REMARKS
   TC - TEMPERATURE IN CELSIUS
  WCI - WIND CHILL INDEX
   HX - HEAT INDEX
  VSB - VISIBILITY
$$




USA.gov is the U.S. government's official web portal to all federal, state and local government web resources and services.